Weather History for 96995 - December, 2012

Change the Weather History Date:

Tuesday, December 11, 2012

  Actual Average Record
Temperature  
Mean Temperature 80 °F -  
Max Temperature 84 °F 79 °F - ()
Min Temperature 77 °F 70 °F - ()
Cooling Degree Days 16    
Growing Degree Days 30 (Base 50)    
Moisture  
Dew Point 76 °F    
Average Humidity 88    
Maximum Humidity 95    
Minimum Humidity 75    
Precipitation  
Precipitation 0.12 in - - ()
Sea Level Pressure  
Sea Level Pressure 29.84 in    
Wind  
Wind Speed 9 mph ()    
Max Wind Speed 13 mph    
Max Gust Speed -    
T = Trace of Precipitation, MM = Missing Value Source: Averaged Metar Reports

Daily Weather History Graph

Daily Weather History Graph

Search for Another Location

Airport or City:

Trip Planner

Search our weather history database for the weather conditions in past years. The results will help you decide how hot, cold, wet, or windy it might be!

Date:

Astronomy

Dec. 11, 2012 Rise Set
Actual Time 5:28 AM CXT 6:12 PM CXT
Civil Twilight 5:05 AM CXT 6:35 PM CXT
Nautical Twilight 4:38 AM CXT 7:02 PM CXT
Astronomical Twilight 4:11 AM CXT 7:30 PM CXT
Moon 3:08 AM CXT (12/11) 4:05 PM CXT (12/11)
Length of Visible Light 13h 29m
Length of Day
12h 43m
Waning Crescent, 7% of the Moon is Illuminated
Dec 11
Waning Crescent
Dec 13
New
Dec 20
First Quarter
Dec 28
Full
Jan 5
Last Quarter

Hourly Weather History & Observations

Time (CXT) Temp. Heat Index Dew Point Humidity Pressure Visibility Wind Dir Wind Speed Gust Speed Precip Events Conditions
12:00 AM 78 °F - 75 °F 87% 29.83 in - SE 10.4 mph - -  
12:00 AM 78.8 °F - 75.2 °F 89% 29.86 in - SE 10.4 mph - N/A   Unknown
1:00 AM 78 °F - 75 °F 89% 29.82 in - SE 9.2 mph - -  
1:00 AM 78.8 °F - 75.2 °F 89% 29.86 in - SE 9.2 mph - N/A   Unknown
2:00 AM 78.8 °F - 75.2 °F 89% 0.00 in - SE 9.2 mph - N/A   Unknown
3:00 AM 78 °F - 76 °F 90% 29.80 in - SE 9.2 mph - -  
3:00 AM 78.8 °F - 75.2 °F 89% 29.83 in - SE 9.2 mph - N/A   Unknown
4:00 AM 78 °F - 76 °F 90% 29.80 in - SE 9.2 mph - -  
4:00 AM 77.0 °F - 75.2 °F 94% 29.83 in - SE 9.2 mph - N/A   Unknown
5:00 AM 78.8 °F - 77.0 °F 94% 29.83 in - SE 10.4 mph - N/A   Unknown
6:00 AM 78 °F - 76 °F 93% 29.82 in - SE 8.1 mph - -  
6:00 AM 78.8 °F - 77.0 °F 94% 29.86 in - SE 8.1 mph - N/A   Unknown
7:00 AM 79 °F - 76 °F 88% 29.83 in - SE 9.2 mph - -  
7:00 AM 78.8 °F - 77.0 °F 94% 29.86 in - SE 9.2 mph - N/A   Unknown
8:00 AM 80.6 °F 87.1 °F 77.0 °F 89% 29.86 in - SSE 8.1 mph - N/A   Unknown
9:00 AM 82 °F - 76 °F 78% 29.84 in - SE 11.5 mph - -  
9:00 AM 82.4 °F 90.9 °F 77.0 °F 84% 29.89 in - SE 11.5 mph - N/A   Unknown
10:00 AM 82 °F - 76 °F 78% 29.85 in - SE 11.5 mph - -  
10:00 AM 82.4 °F 90.9 °F 77.0 °F 84% 29.89 in - SE 11.5 mph - N/A   Unknown
11:00 AM 82.4 °F 90.9 °F 77.0 °F 84% 29.86 in - SE 10.4 mph - N/A   Unknown
12:00 PM 83 °F - 76 °F 75% 29.82 in - SE 12.7 mph - -  
12:00 PM 82.4 °F 90.9 °F 77.0 °F 84% 29.86 in - SE 12.7 mph - N/A   Unknown
1:00 PM 82 °F - 77 °F 80% 29.80 in - SE 11.5 mph - -  
1:00 PM 82.4 °F 90.9 °F 77.0 °F 84% 29.83 in - SE 11.5 mph - N/A   Unknown
2:00 PM 80.6 °F 87.1 °F 77.0 °F 89% 29.80 in - SSE 10.4 mph - N/A   Unknown
3:00 PM 82 °F - 77 °F 81% 29.77 in - SSE 8.1 mph - -  
3:00 PM 82.4 °F 90.9 °F 77.0 °F 84% 29.80 in - SSE 8.1 mph - N/A   Unknown
4:00 PM 80 °F - 76 °F 86% 29.78 in - SSE 8.1 mph - -  
4:00 PM 80.6 °F 87.1 °F 77.0 °F 89% 29.80 in - SSE 8.1 mph - N/A   Unknown
5:00 PM 78.8 °F - 77.0 °F 94% 29.80 in - SSE 9.2 mph - N/A   Unknown
6:00 PM 78 °F - 77 °F 95% 29.80 in - SSE 11.5 mph - -  
6:00 PM 78.8 °F - 77.0 °F 94% 29.83 in - SSE 11.5 mph - N/A   Unknown
7:00 PM 78 °F - 76 °F 93% 29.82 in - SE 12.7 mph - -  
7:00 PM 78.8 °F - 77.0 °F 94% 29.86 in - SE 12.7 mph - N/A   Unknown
8:00 PM 78.8 °F - 77.0 °F 94% 29.86 in - SSE 11.5 mph - N/A   Unknown
9:00 PM 78 °F - 76 °F 91% 29.84 in - SE 12.7 mph - -  
9:00 PM 78.8 °F - 75.2 °F 89% 29.89 in - SE 12.7 mph - N/A   Unknown
10:00 PM 78 °F - 76 °F 92% 29.86 in - SE 12.7 mph - -  
10:00 PM 78.8 °F - 77.0 °F 94% 29.89 in - SE 12.7 mph - N/A   Unknown
11:00 PM 78.8 °F - 75.2 °F 89% 29.89 in - SE 10.4 mph - N/A   Unknown